EHI
1 2 3 3 2 2 1 0 0 0 0 0 0 0 0 0 0 0 0 0 0 0 0 0 0 0 0 0 0 0 0 0 0 0 0 0 0 0 0 0 0 0 0
1 2 3 3 1 1 0 0 0 0 0 0 0 0 0 0 0 0 0 0 0 0 0 0 0 0 0 0 0 0 0 0 0 0 0 0 0 0 0 0 0 0 0
0 1 2 2 1 0 0 0 0 0 0 0 0 0 0 0 0 0 0 0 0 0 0 0 0 0 0 0 0 0 0 0 0 0 0 0 0 0 0 0 0 0 0
0 0 1 1 1 0 0 0 0 0 0 0 0 0 0 0 0 0 0 0 0 0 0 0 0 0 0 0 0 0 0 0 0 0 0 0 0 0 0 0 0 0 0
0 0 0 0 0 0 0 0 0 0 0 0 0 0 0 0 0 0 0 0 0 0 0 0 0 0 0 0 0 0 0 0 0 0 0 0 0 0 0 0 0 0 0
0 0 0 0 0 0 0 0 0 0 0 0 0 0 0 0 0 0 0 0 0 0 0 0 0 0 0 0 0 0 0 0 0 0 0 0 0 0 0 0 0 0 0
0 0 0 0 0 0 0 0 0 0 0 0 0 0 0 0 0 0 0 0 0 0 0 0 0 0 0 0 0 0 0 0 0 0 0 0 0 0 0 0 0 0 0
0 0 0 0 0 0 0 0 0 0 0 0 0 0 0 0 0 0 0 0 0 0 0 0 0 0 0 0 0 0 0 0 0 0 0 0 0 0 0 0 0 0 0
0 0 0 0 0 0 0 0 0 0 0 0 0 0 0 0 0 0 0 0 0 0 0 0 0 0 0 0 0 0 0 0 0 0 0 0 0 0 0 0 0 0 0
0 0 0 0 0 0 0 0 0 0 0 0 0 0 0 0 0 0 0 0 0 0 0 0 0 0 0 0 0 0 0 0 0 0 0 0 0 0 0 0 0 0 0
0 0 0 0 0 0 0 0 0 0 0 0 0 0 0 0 0 0 0 0 0 0 0 0 0 0 0 0 0 0 0 0 0 0 0 0 0 0 0 0 0 0 0
0 0 0 0 0 0 0 0 0 0 0 0 0 0 0 0 0 0 0 0 0 0 0 0 0 0 0 0 0 0 0 0 0 0 0 0 0 0 0 0 0 0 0
0 0 0 0 0 0 0 0 0 0 0 0 0 0 0 0 0 0 0 0 0 0 0 0 0 0 0 0 0 0 0 0 0 0 0 0 0 0 0 0 0 0 0
0 0 0 0 0 0 0 0 0 0 0 0 0 0 0 0 0 0 0 0 0 0 0 0 0 0 0 0 0 0 0 0 0 0 0 0 0 0 0 0 0 0 0
0 0 0 0 0 0 0 0 0 0 0 0 0 0 0 0 0 0 0 0 0 0 0 0 0 0 0 0 0 0 0 0 0 0 0 0 0 0 0 0 0 0 0
0 0 0 0 0 0 0 0 0 0 0 0 0 0 0 0 0 0 0 0 0 0 0 0 0 0 0 0 0 0 0 0 0 0 0 0 0 0 0 0 0 0 0
0 0 0 0 0 0 0 0 0 0 0 0 0 0 0 0 0 0 0 0 0 0 0 0 0 0 0 0 0 0 0 0 0 0 0 0 0 0 0 0 0 0 0
0 0 0 0 0 0 0 0 0 0 0 0 0 0 0 0 0 0 0 0 0 0 0 0 0 0 0 0 0 0 0 0 0 0 0 0 0 0 0 0 0 0 0
0 0 0 0 0 0 0 0 0 0 0 0 0 0 0 0 0 0 0 0 0 0 0 0 0 0 0 0 0 0 0 0 0 0 0 0 0 0 0 0 0 0 0
0 0 0 0 0 0 0 0 0 0 0 0 0 0 0 0 0 0 0 0 0 0 0 0 0 0 0 0 0 0 0 0 0 0 0 0 0 0 0 0 0 0 0
0 0 0 0 0 0 0 0 0 0 0 0 0 0 0 0 0 0 0 0 0 0 0 0 0 0 0 0 0 0 0 0 0 0 0 0 0 0 0 0 0 0 0
0 0 0 0 0 0 0 0 0 0 0 0 0 0 0 0 0 0 0 0 0 0 0 0 0 0 0 0 0 0 0 0 0 0 0 0 0 0 0 0 0 0 0
0 0 0 0 0 0 0 0 0 0 0 0 0 0 0 0 0 0 0 0 0 0 0 0 0 0 0 0 0 0 0 0 0 0 0 0 0 0 0 0 0 0 0
0 0 0 0 0 0 0 0 0 0 0 0 0 0 0 0 0 0 0 0 0 0 0 0 0 0 0 0 0 0 0 0 0 0 0 0 0 0 0 0 0 0 0
0 0 0 0 0 0 0 0 0 0 0 0 0 0 0 0 0 0 0 0 0 0 0 0 0 0 0 0 0 0 0 0 0 0 0 0 0 0 0 0 0 0 0
0 0 0 0 0 0 0 0 0 0 0 0 0 0 0 0 0 0 0 0 0 0 0 0 0 0 0 0 0 0 0 0 0 0 0 0 0 0 0 0 0 0 0
Wind_Speed
3 3 3 2 2 2 2 2 2 1 1 1 1 1 2 2 2 2 2 2 2 2 3 2 2 2 2 2 2 2 3 2 2 2 2 1 1 2 2 2 3 3 3
2 2 2 2 2 2 2 2 2 2 2 2 2 2 2 2 2 2 2 2 2 3 3 3 2 3 3 3 2 3 2 2 2 2 2 3 3 2 2 2 2 3 3
3 3 2 2 2 2 2 2 3 3 2 2 1 1 2 2 2 3 2 3 3 3 3 3 3 3 3 3 3 3 3 3 2 2 2 2 3 2 2 3 3 3 3
3 3 3 3 3 3 3 3 3 3 3 3 3 4 3 4 4 3 3 3 4 4 4 4 4 4 4 4 4 4 4 4 3 3 2 1 0 2 2 3 3 3 4
3 3 3 3 3 3 3 3 3 3 3 3 4 4 4 4 3 3 4 4 4 4 4 4 4 5 4 5 4 4 4 4 4 3 2 3 2 2 2 3 3 3 3
3 3 2 2 2 2 2 2 3 3 3 4 4 5 5 5 5 5 5 4 3 4 5 5 4 5 5 5 5 5 6 5 5 4 3 3 3 3 3 3 4 3 3
3 2 2 2 2 2 3 3 3 3 3 4 5 5 6 6 6 6 5 4 4 4 5 5 5 4 5 5 5 6 5 6 6 5 4 4 4 3 3 3 3 3 2
3 3 2 2 3 3 3 3 4 4 4 4 5 5 5 5 4 5 5 5 4 4 5 6 5 5 5 6 6 5 6 5 6 6 6 4 4 4 3 3 3 3 3
3 3 3 3 3 3 3 3 4 4 4 4 4 5 5 5 5 5 6 5 5 5 6 6 6 6 6 6 6 6 6 6 6 6 6 5 4 4 3 3 4 4 4
4 3 3 3 4 3 4 4 4 4 4 4 4 4 5 5 5 5 6 6 6 6 6 6 6 6 6 7 7 6 7 7 7 5 6 6 4 4 4 4 4 4 4
4 4 4 4 4 4 4 4 4 5 4 4 4 4 5 5 5 5 6 6 6 6 7 7 7 7 7 7 7 7 8 8 8 7 7 7 6 5 5 5 4 4 4
4 4 4 4 4 4 5 5 5 5 5 4 4 5 5 5 5 5 6 6 6 6 7 7 7 7 7 7 8 8 8 8 9 8 8 8 6 7 6 5 5 5 4
5 4 4 4 4 5 5 5 5 5 5 4 4 5 5 5 6 6 6 6 6 6 7 7 8 7 7 8 9 9 9 9 9 9 9 9 8 8 6 7 6 5 4
5 5 5 5 5 5 6 6 6 5 5 4 5 5 5 5 6 6 6 6 6 7 7 7 8 8 8 9 9 9 9 9 9 9 9 9 9 9 8 7 7 6 5
7 6 6 6 6 6 6 6 7 6 5 5 5 5 5 5 5 5 6 6 6 6 7 7 8 8 7 8 8 8 9 9 9 9 9 9 9 10 8 7 7 6 6
8 8 8 7 7 7 7 7 7 6 5 5 5 5 5 5 5 5 5 5 5 5 6 7 7 8 7 9 11 9 8 9 9 9 9 9 9 10 12 11 10 8 8
8 9 9 8 8 7 7 7 7 6 5 5 5 4 4 4 4 5 5 5 5 5 5 6 7 8 8 9 10 11 9 9 9 9 8 7 7 10 9 10 10 10 10
9 9 9 9 8 7 7 6 6 5 4 4 4 4 4 4 4 4 4 4 4 4 5 5 5 6 7 8 9 9 9 8 8 9 9 9 8 8 9 8 8 8 9
9 9 8 8 8 7 7 6 5 5 4 5 4 4 4 4 4 4 5 4 4 4 5 4 5 5 6 7 8 9 6 7 8 8 8 9 9 10 11 9 9 8 7
8 8 7 7 7 7 6 6 6 5 6 6 5 4 4 4 4 5 5 4 4 4 4 4 4 4 5 6 7 8 5 6 6 6 7 9 11 11 12 10 9 9 8
8 8 7 6 6 7 6 6 6 6 7 6 5 4 4 4 4 4 4 4 3 3 3 3 3 3 4 5 5 6 5 5 5 5 5 6 10 11 12 11 9 9 7
8 8 7 7 7 7 6 6 7 7 7 6 4 4 4 4 3 3 3 3 3 3 3 3 3 3 3 4 3 4 4 4 4 4 3 4 7 9 10 9 8 9 7
7 7 7 7 7 7 7 7 8 7 7 6 5 4 5 4 3 3 3 3 2 2 3 3 3 3 3 3 4 3 3 3 2 2 3 3 5 6 6 7 7 7 5
7 6 6 7 8 8 8 7 8 7 6 6 5 4 4 4 4 3 3 2 3 3 3 3 3 3 3 3 3 2 2 2 2 1 1 2 3 2 2 3 4 3 4
6 6 6 6 8 8 8 8 8 7 6 6 5 5 4 4 4 3 3 3 3 3 4 3 3 3 3 4 6 4 2 1 1 1 1 1 1 1 1 1 1 2 2
6 6 6 7 7 8 8 8 8 6 6 5 5 4 4 4 3 3 4 5 5 7 8 7 6 4 5 7 6 5 4 3 1 1 1 1 1 1 1 1 1 1 2
Wind_Direction
226 202 196 191 182 189 203 217 219 228 239 247 239 244 249 261 266 266 274 279 284 280 238 225 217 228 229 231 225 216 194 191 192 189 172 164 174 180 182 182 182 181 188
245 224 207 202 197 201 216 228 230 229 236 251 257 256 260 264 265 266 264 267 269 274 252 223 221 226 227 223 223 215 201 192 204 199 183 187 185 189 194 187 196 191 191
253 240 228 217 218 219 224 235 240 243 245 241 241 240 244 257 258 260 263 264 261 262 257 239 226 223 225 223 224 220 209 195 203 214 214 207 198 174 182 192 197 199 198
264 249 240 235 234 239 236 240 239 243 244 231 226 229 235 243 253 254 255 258 253 252 252 239 231 221 225 229 226 223 219 204 202 204 228 262 207 194 178 182 192 206 209
273 254 244 242 243 243 244 244 245 247 249 247 237 240 242 247 250 247 244 248 245 245 247 240 235 226 223 227 226 228 219 213 210 205 206 204 213 227 218 198 186 198 210
289 280 270 261 252 243 248 252 251 258 260 254 247 245 247 245 245 244 240 241 241 237 240 236 232 231 227 227 226 226 221 219 218 212 211 204 200 203 210 215 202 203 206
294 298 304 294 285 271 262 262 259 263 262 257 255 248 249 244 241 243 240 240 240 237 238 236 231 233 233 229 228 225 222 221 219 217 215 218 218 215 222 217 215 217 208
302 303 295 296 297 294 283 272 265 267 262 258 261 253 249 248 245 244 247 242 244 240 241 238 232 235 239 233 229 222 221 220 220 223 221 220 218 214 222 214 213 215 214
310 308 307 311 311 307 303 290 279 278 272 265 263 261 252 251 250 247 246 245 245 239 239 238 232 232 235 234 228 222 220 219 220 220 221 222 222 217 225 223 219 220 218
317 314 311 317 316 313 309 305 292 285 282 277 270 265 259 255 253 248 243 242 245 240 239 239 230 229 230 231 226 222 220 218 218 218 220 221 222 216 217 222 226 234 229
317 313 313 318 318 320 318 310 301 297 291 284 279 271 266 260 255 251 249 246 244 238 236 239 232 230 228 229 226 221 219 219 220 218 220 222 221 217 213 214 219 227 234
323 320 323 326 324 321 321 315 307 300 294 287 280 273 272 265 260 257 256 252 247 240 235 237 233 231 229 228 227 222 220 219 219 219 220 222 220 220 217 214 217 222 227
338 334 333 331 325 319 316 314 308 301 297 289 276 270 270 268 265 263 260 256 251 246 238 236 234 232 232 233 232 224 220 221 223 222 221 222 220 220 218 217 217 220 224
335 330 329 327 323 319 317 315 311 303 295 287 277 271 271 272 271 269 264 260 256 248 239 238 237 235 236 235 234 226 222 222 225 227 225 225 224 220 218 219 218 216 220
337 330 325 321 321 323 323 318 312 303 296 287 278 276 278 276 274 271 267 265 261 255 242 239 237 235 236 234 231 227 225 224 225 227 227 228 230 228 223 220 215 211 216
328 329 327 321 319 319 318 316 312 306 298 289 285 286 285 281 279 277 273 270 267 264 248 242 239 238 238 235 235 233 228 227 227 228 229 228 227 224 226 228 228 224 217
321 322 321 316 315 316 313 311 311 308 302 296 296 294 290 283 283 282 276 273 271 266 258 251 243 244 246 242 239 235 233 229 227 227 228 226 224 221 221 222 226 231 231
323 319 316 313 315 317 316 315 313 309 306 305 301 297 291 288 288 285 280 278 273 266 262 259 255 254 252 250 247 242 236 235 232 230 229 229 226 219 218 218 220 226 225
318 314 313 314 319 322 325 323 320 320 317 310 304 296 291 291 291 287 285 283 277 273 270 269 264 265 265 259 251 240 233 231 235 234 231 229 228 223 220 217 218 225 230
322 323 325 325 325 328 331 328 325 328 324 317 307 296 293 289 286 289 292 292 285 281 286 285 279 273 275 277 258 237 230 231 231 228 229 230 231 226 220 218 217 222 224
326 327 328 329 329 330 332 329 330 329 324 321 317 311 304 295 293 297 301 301 298 297 298 297 297 293 290 292 278 251 233 230 227 227 227 226 223 225 223 222 223 224 223
334 335 336 334 333 334 336 336 334 330 331 332 331 328 325 321 313 311 313 312 308 304 307 310 316 316 306 305 301 280 258 250 228 230 233 227 219 223 224 223 221 219 219
334 336 338 337 339 342 343 340 334 337 340 344 343 339 339 339 338 334 332 333 328 321 321 323 323 321 316 320 328 307 283 269 257 250 243 230 222 228 227 224 219 216 214
336 337 340 341 341 343 345 340 337 340 345 347 344 345 345 346 349 346 343 342 337 332 327 323 320 318 322 333 333 326 309 275 259 263 249 228 220 225 235 226 225 223 217
334 335 337 336 336 340 344 343 341 342 346 349 350 347 346 346 345 347 346 336 334 336 330 323 317 320 325 335 335 329 324 313 286 246 256 255 233 213 209 218 219 220 214
334 335 337 338 337 341 343 344 342 343 346 348 349 348 348 349 347 345 348 355 347 346 344 345 339 332 338 336 337 338 345 344 312 256 192 209 211 204 213 218 219 221 230